Showing default

GHOST-5, 59130

Orbit data source: Space-Track

GHOST-5, 59130 is a payload satellite owned by Orbital Sidekick (US) in SSO that was launched on Mon, 04 Mar 2024 UTC via an FALCON 9 launch vehicle from the Air Force Western Test Range (AFWTR). Payload-class satellites include a variety of spacecraft equipped with specific instruments for various scientific and technological missions. These include communications satellites like Starlink; space stations such as the ISS; scientific satellites like the Hubble; Earth observation satellites from companies like Planet Labs, Umbra, and HawkEye 360; GPS; miniature CubeSats for education and research; and military/defense satellites.

Loading next visibility...
Identifier
59130, 2024-043AJ
Orbit
SSO
Country
Flag of USUS
Related business
Manufacturer
Astro Digital
Mission
Operational Commercial Imaging
Bus & Motor
CORVUS-XL, Unknown motor
Mass
85 kg wet, 85 kg dry
Launch date (UTC)
2024-03-04 (2 years ago)
Launch vehicle
FALCON 9
Launch site
Air Force Western Test Range (AFWTR)
Object type
Payload
Rocket body
Debris
Shape & HBR
Box + 1 Dish, 1.0 m
Radar Cross Section
0.425 m², Medium (>0.1 m² and < 1m²)

Expand to show TLE details & history
Last TLE update: 13 hours ago

TLE from 13 hours ago
0 GHOST-5
1 59130U 24043AJ  25349.89187878  .00011785  00000-0  32780-3 0  9995
2 59130  97.5341 123.6382 0009207 149.8643 210.3133 15.36959004 99303
Epoch: 2025-12-15T21:24Z
TLE epoch observation values (Epoch: 2025-12-15T21:24:18.326Z)
Latitude
0.00003°
Longitude
77.77791°
Altitude
463.651 km
Speed
7.632 km/s
True Right ascension
08h 14m 33s
True Declination
0° 00' 00"
Sunlit
Object was in full shadow at epoch
Visualization orbit readout
Latitude
Unknown
Longitude
Unknown
Altitude
Unknown
Speed
Unknown
Apparent Right ascension
Unknown
Apparent Declination
Unknown
Sunlit
N/A
Visualization observer readout
Local Sidereal Time
09:16:53
Azimuth
Unknown
Elevation
Unknown
Doppler factor
Unknown
Orbital elements
Apogee altitude
458.345 km
Perigee altitude
445.768 km
Semi-major axis
6,830.194 km
Eccentricity
0.00092
Inclination
97.5341°
RAAN
123.6382°
Arg. of periapsis
149.8643°
True anomaly
210.2601°
Mean anomaly
210.3133°
Eccentric anomaly
210.2867°
Mean motion
3.84498 °/min
Orbital period
93.63 mins
BSTAR
0.0003278
Loading maneuver chart data...
Computing Atmospheric mass density...
Loading historical data...
Loading historical data...
Loading historical data...
Loading historical data...
Loading historical data...
Loading historical data...
Loading historical data...

Documentation

Showing up to 5 results
|